Overview Statistics Trail Chart Weather Telemetry Raw packets
 

This is the latest recevied weather packets stored in our database for station/object M0JUI-1. If no packets are shown the sender has not sent any weather packets the latest 10 day(s).

<< 64 65 66 67 68 69 70 >>
Time Temp. Humidity Pressure Rain* Wind** Luminosity Snow
1788191217 16.67° C 1% 1015.4 hPa 0 mm - 93 W/m² -
1788190918 16.67° C 1% 1015.2 hPa 0 mm - 135 W/m² -
1788190617 16.67° C 1% 1015.1 hPa 0 mm - 173 W/m² -
1788190317 16.67° C 1% 1015.1 hPa 0 mm - 187 W/m² -
1788190005 16.67° C 1% 1014.8 hPa 0 mm - 129 W/m² -
1788189705 16.67° C 1% 1014.9 hPa 0 mm - 156 W/m² -
1788189405 17.22° C 1% 1014.9 hPa 0 mm - 170 W/m² -
1788189105 17.78° C 1% 1015 hPa 0 mm - 97 W/m² -
1788188805 17.22° C 1% 1014.8 hPa 0 mm - 370 W/m² -
1788188505 17.22° C 1% 1014.5 hPa 0 mm - 215 W/m² -
1788188205 17.22° C 1% 1014.5 hPa 0 mm - 161 W/m² -
1788187905 17.22° C 1% 1014.4 hPa 0 mm - 131 W/m² -
1788187605 17.22° C 1% 1014.5 hPa 0 mm - 233 W/m² -
1788187305 17.22° C 1% 1014.4 hPa 0 mm - 230 W/m² -
1788187005 17.22° C 1% 1014.2 hPa 0 mm - 294 W/m² -
1788186705 17.78° C 1% 1014.3 hPa 0 mm - 343 W/m² -
1788186405 17.22° C 1% 1014.2 hPa 0 mm - 291 W/m² -
1788186105 17.78° C 1% 1014.1 hPa 0 mm - 280 W/m² -
1788185804 17.78° C 1% 1014 hPa 0 mm - 269 W/m² -
1788185505 17.78° C 1% 1014.1 hPa 0 mm - 313 W/m² -
1788185204 17.78° C 1% 1014 hPa 0 mm - 319 W/m² -
1788184904 17.78° C 1% 1013.8 hPa 0 mm - 486 W/m² -
1788184605 17.22° C 1% 1013.9 hPa 0 mm - 161 W/m² -
1788184304 17.78° C 1% 1013.6 hPa 0 mm - 146 W/m² -
1788184007 17.78° C 1% 1013.6 hPa 0 mm - 138 W/m² -

* Rain latest hour (hover to see other rain measurements)
** Current wind speed in m/s (hover to see current wind gust speed)